Wind_Speed
4 10 9 13 15 17 17 17 15 12 9 6 4 4 4 5 13 17 19 23 25 25 24 22 19 17 16 16 16 16 17 18 18 19 20 21 21 21 22 23 23 24 23
21 13 14 13 17 18 19 18 17 14 10 7 4 3 4 9 16 19 22 23 25 25 25 22 19 17 16 15 16 16 16 17 17 17 18 19 19 19 20 20 21 22 21
21 21 16 14 19 20 20 19 18 15 12 8 5 3 7 12 17 19 23 25 27 27 24 21 19 17 16 15 15 16 15 16 16 16 15 17 17 18 17 18 18 18 17
10 12 19 18 20 21 22 21 19 17 13 9 5 4 10 14 18 21 26 27 26 26 23 21 19 16 16 15 15 15 15 15 15 15 14 14 15 16 15 15 15 14 14
12 12 19 18 21 22 23 23 21 18 14 10 6 5 12 17 21 24 26 26 25 24 22 20 19 16 16 15 15 15 14 14 14 14 13 12 13 13 13 12 12 11 11
16 13 16 20 21 22 24 25 22 19 15 12 8 7 12 17 24 25 25 25 25 23 21 20 18 16 15 15 15 15 15 14 13 13 12 12 11 11 11 9 9 9 10
21 15 16 20 22 22 25 25 24 20 17 14 10 11 16 21 23 24 24 24 24 23 21 19 17 16 15 15 15 16 15 14 13 12 11 11 10 10 8 7 7 7 8
16 16 19 22 23 23 26 26 25 22 19 16 14 16 19 21 20 21 21 23 24 22 22 19 17 16 15 15 16 16 15 14 13 12 11 11 9 9 8 6 5 6 6
16 17 21 25 25 26 27 27 26 24 21 19 18 19 19 22 19 20 20 22 23 22 21 19 18 17 16 16 16 16 15 15 13 12 12 10 9 8 7 6 5 5 4
23 20 25 28 28 28 30 29 28 26 24 21 21 22 19 19 20 20 21 22 23 22 21 20 19 18 17 17 17 17 15 15 14 13 11 10 9 7 6 5 5 4 6
31 24 27 31 31 29 31 32 30 28 26 24 24 24 22 22 21 21 21 22 23 23 21 20 18 18 17 17 18 17 15 15 13 11 10 9 8 6 6 6 5 5 6
35 29 29 34 32 33 32 34 33 32 29 27 25 27 24 21 20 20 22 23 23 24 23 21 20 19 18 17 18 18 16 14 13 12 10 9 8 7 6 6 6 5 6
34 33 33 35 36 35 35 37 36 35 31 29 28 26 24 23 22 22 24 25 23 24 24 23 22 20 19 18 18 18 16 15 12 12 10 9 8 7 6 5 5 5 5
33 33 35 38 39 38 37 39 38 38 36 32 30 27 24 23 22 21 21 22 23 24 25 25 23 21 21 20 19 17 16 14 11 10 9 8 8 7 6 5 5 5 4
40 35 37 40 43 42 41 40 41 40 37 33 29 27 25 24 22 20 20 21 23 25 26 25 24 22 21 20 19 17 15 14 11 9 8 8 7 7 6 5 4 5 4
46 44 40 44 46 44 43 44 43 41 39 35 31 27 26 25 23 21 20 20 22 25 26 26 24 22 21 20 19 18 17 15 13 11 9 8 7 6 5 5 4 4 4
51 47 45 46 49 49 48 47 45 43 41 37 33 29 27 25 24 23 22 21 22 25 26 27 26 25 23 21 20 19 18 16 14 12 11 9 8 6 5 4 4 3 4
50 49 53 49 52 48 51 49 48 46 43 39 36 32 29 26 25 26 24 23 23 25 26 26 26 25 24 22 20 19 18 17 15 13 12 10 9 7 7 5 4 3 2
50 58 57 55 54 51 52 53 50 47 45 42 39 35 32 30 28 28 27 25 25 25 26 27 27 26 24 23 21 20 19 17 16 15 12 11 9 8 7 6 5 2 1
54 63 45 51 57 52 53 55 53 49 47 44 40 37 34 34 31 30 30 28 27 27 28 28 28 27 26 24 22 21 19 17 16 15 13 12 11 9 8 7 5 2 2
57 59 67 58 54 57 57 57 57 53 48 44 40 38 36 37 34 33 32 32 30 30 29 28 28 27 26 24 23 22 20 18 16 15 14 13 12 11 10 7 5 4 3
61 52 61 57 48 57 61 60 55 51 46 42 42 41 40 39 38 35 35 34 31 32 33 31 29 29 28 26 23 22 21 19 18 16 15 14 13 12 10 7 6 5 4
50 53 65 56 49 63 62 56 55 51 50 49 47 46 42 40 38 37 36 35 33 34 33 32 31 29 27 25 23 23 21 20 18 17 16 15 14 12 10 8 7 7 6
42 55 65 60 38 66 47 59 59 55 55 51 45 42 40 40 38 37 36 36 34 34 35 34 32 30 28 26 25 21 22 19 17 17 16 15 14 12 10 9 8 8 7
41 55 44 52 52 52 61 65 61 52 52 48 47 45 43 42 40 38 38 37 36 36 36 35 33 31 30 28 25 23 21 21 19 17 15 15 13 11 10 10 9 9 9
40 51 45 62 48 45 40 55 55 51 54 53 48 47 44 42 41 40 39 38 37 36 37 35 33 32 30 29 28 27 23 23 20 19 17 14 14 14 12 11 11 10 10
Wind_Direction
199 252 231 232 228 219 214 210 210 205 205 209 227 246 243 205 162 163 162 156 150 149 147 145 144 136 131 126 118 110 107 107 105 105 103 99 96 94 92 88 88 84 81
243 248 242 240 230 226 216 210 209 206 203 211 233 224 196 168 159 164 163 151 150 150 149 147 141 139 136 131 125 118 113 112 112 110 107 103 100 96 92 91 86 82 79
247 248 239 236 227 221 214 210 206 202 202 211 224 196 176 170 162 165 161 153 147 148 149 145 142 141 139 136 130 125 121 119 117 115 114 108 106 98 95 89 84 81 76
271 251 235 231 221 218 213 207 206 201 201 208 213 180 169 166 158 154 155 155 152 149 149 145 144 144 141 138 136 134 128 125 122 121 119 116 109 104 98 90 86 80 75
269 260 231 221 216 215 212 208 204 201 200 204 200 176 175 166 158 157 158 157 155 151 150 149 146 147 144 141 142 140 135 132 129 127 129 123 113 108 99 95 87 80 71
256 243 218 213 213 213 211 206 203 199 198 198 191 169 157 165 164 163 161 160 158 154 153 153 150 152 146 145 147 147 145 140 133 133 133 128 119 112 105 97 88 77 67
242 236 217 213 215 210 209 207 203 198 197 199 184 162 152 154 154 157 163 163 161 159 158 158 155 155 153 151 155 154 153 146 136 140 140 132 127 119 112 104 89 75 64
237 237 228 212 212 210 207 206 205 197 196 198 176 168 168 166 164 160 163 165 165 164 161 159 157 157 156 156 159 155 155 148 144 140 141 135 129 122 116 106 84 73 59
242 243 232 219 210 208 206 205 205 197 198 196 179 175 175 185 185 174 170 168 169 170 163 161 161 160 160 161 158 154 153 148 142 142 139 134 129 121 109 100 80 68 56
242 249 229 220 210 204 204 203 206 201 197 198 187 187 182 185 186 178 174 174 175 173 167 166 166 162 161 160 157 156 157 149 141 144 139 136 128 120 113 102 88 79 61
240 235 228 219 211 202 205 202 203 204 200 200 193 189 191 189 186 180 178 180 180 177 172 169 169 164 163 161 159 156 159 149 145 142 141 138 128 122 112 102 95 78 70
236 231 227 219 211 200 204 204 204 202 201 199 195 196 198 192 190 183 182 184 185 181 177 172 174 168 167 165 164 159 160 156 152 144 140 136 129 121 112 106 97 82 71
228 226 221 219 213 203 203 204 203 204 200 199 199 194 200 196 194 188 187 187 188 186 181 176 179 174 170 171 169 164 164 162 157 145 139 138 131 123 120 112 103 89 77
219 219 223 215 213 205 202 205 206 207 204 201 200 201 204 202 199 194 191 188 189 192 185 182 182 178 175 175 171 169 168 165 162 151 145 141 138 137 135 122 111 98 84
205 221 217 218 212 207 203 206 208 209 211 208 206 203 205 208 207 199 196 191 192 195 190 185 185 184 180 178 176 173 171 167 167 159 152 150 149 150 141 127 114 101 86
202 204 219 223 215 211 205 207 208 209 211 212 208 207 207 209 209 205 199 197 193 195 193 189 188 190 187 183 181 180 177 175 173 168 168 164 161 158 142 127 118 105 86
201 207 201 221 221 210 210 210 210 210 211 213 212 210 211 211 208 210 202 199 197 194 198 193 190 191 191 188 187 185 183 181 178 180 175 175 171 165 154 147 139 116 94
208 208 201 208 223 220 213 212 212 210 211 212 214 211 213 212 209 211 209 198 200 198 199 198 195 194 194 192 191 188 190 185 186 181 184 184 182 175 173 167 151 136 95
210 202 212 207 214 219 213 215 215 211 211 212 214 214 212 212 211 209 211 201 202 200 199 199 198 196 197 197 194 193 193 190 188 189 187 189 189 187 183 176 166 172 316
211 212 209 207 208 215 213 217 214 214 210 212 213 214 212 215 212 210 211 207 202 203 199 201 199 199 197 200 199 197 197 197 196 195 192 193 196 192 189 186 186 232 248
209 211 213 215 204 211 215 218 214 211 212 210 212 214 214 217 215 212 210 210 202 205 203 204 202 201 205 203 201 201 201 202 203 202 199 198 198 195 192 202 217 246 235
214 215 210 210 213 205 212 219 214 214 210 211 212 213 214 216 214 213 211 210 205 206 204 205 208 205 204 205 207 203 206 206 207 206 204 203 200 196 198 224 238 230 235
219 218 219 213 202 209 208 216 209 212 212 209 209 213 213 216 212 213 211 209 207 207 206 207 210 209 206 208 207 209 207 211 211 209 207 205 201 200 217 234 239 231 237
227 219 218 222 210 218 200 207 208 211 211 209 210 214 214 217 214 212 213 210 206 207 209 209 211 209 209 206 210 210 208 210 216 213 208 204 202 215 233 238 236 235 234
229 225 230 225 224 214 214 206 207 213 212 210 209 211 214 215 213 212 211 209 208 209 208 210 210 207 207 208 206 207 212 205 206 210 212 203 214 229 236 241 238 232 230
231 228 235 221 221 206 201 203 209 206 213 208 209 210 213 216 214 210 210 210 208 209 209 208 209 208 209 210 207 203 203 207 200 200 197 209 220 228 235 238 238 235 236
Height
3134 3136 3136 3137 3137 3139 3140 3142 3145 3146 3147 3148 3147 3148 3148 3148 3147 3150 3152 3153 3155 3158 3161 3163 3165 3166 3168 3168 3168 3168 3168 3168 3168 3169 3168 3168 3168 3168 3168 3167 3167 3165 3165
3132 3134 3135 3135 3136 3137 3140 3141 3144 3146 3147 3148 3147 3147 3147 3147 3147 3150 3153 3154 3156 3159 3162 3163 3165 3167 3168 3169 3169 3170 3170 3170 3170 3171 3171 3171 3171 3171 3170 3170 3169 3168 3168
3130 3131 3132 3134 3134 3135 3137 3140 3143 3146 3147 3148 3147 3147 3147 3147 3148 3150 3153 3155 3157 3160 3162 3164 3166 3168 3169 3170 3170 3171 3172 3172 3173 3173 3174 3174 3174 3173 3173 3172 3171 3171 3170
3127 3127 3129 3131 3132 3134 3136 3138 3141 3145 3147 3148 3148 3146 3147 3148 3149 3151 3154 3156 3158 3160 3163 3165 3167 3168 3169 3171 3171 3173 3173 3174 3174 3175 3176 3176 3175 3175 3175 3175 3174 3173 3173
3124 3124 3126 3128 3130 3132 3135 3137 3140 3143 3146 3147 3148 3147 3147 3149 3150 3152 3154 3157 3159 3161 3164 3165 3167 3169 3170 3171 3172 3174 3175 3176 3176 3177 3177 3178 3178 3177 3177 3176 3176 3175 3175
3122 3122 3123 3125 3128 3130 3132 3136 3138 3143 3146 3146 3148 3147 3147 3148 3150 3152 3155 3157 3159 3161 3164 3166 3168 3170 3171 3172 3173 3175 3176 3177 3178 3178 3179 3179 3179 3179 3179 3178 3178 3177 3177
3118 3119 3120 3123 3127 3128 3131 3134 3137 3140 3144 3147 3147 3148 3149 3150 3151 3153 3156 3158 3160 3162 3164 3167 3168 3170 3171 3172 3174 3175 3177 3179 3179 3179 3179 3180 3180 3180 3180 3180 3179 3179 3178
3114 3116 3118 3120 3123 3125 3129 3131 3136 3138 3143 3146 3147 3148 3150 3152 3152 3154 3157 3159 3160 3162 3164 3167 3169 3170 3171 3173 3174 3176 3178 3179 3180 3180 3181 3181 3181 3181 3181 3181 3181 3180 3179
3109 3113 3115 3117 3120 3124 3126 3130 3134 3136 3141 3145 3147 3148 3148 3151 3152 3154 3157 3159 3161 3163 3164 3167 3169 3170 3172 3173 3175 3176 3179 3180 3180 3181 3182 3182 3182 3182 3182 3182 3182 3181 3180
3104 3109 3111 3113 3115 3119 3123 3126 3131 3135 3138 3142 3145 3147 3147 3149 3151 3154 3156 3159 3161 3163 3164 3166 3169 3170 3172 3173 3175 3177 3179 3180 3181 3182 3182 3183 3183 3183 3183 3183 3183 3182 3182
3098 3103 3107 3109 3111 3115 3120 3123 3128 3132 3135 3139 3142 3145 3146 3147 3149 3153 3155 3158 3161 3163 3165 3167 3169 3171 3173 3174 3175 3177 3179 3180 3181 3182 3183 3183 3183 3184 3184 3184 3184 3184 3183
3093 3098 3101 3104 3107 3111 3116 3120 3124 3127 3131 3135 3139 3141 3143 3146 3149 3152 3154 3156 3159 3162 3164 3167 3169 3171 3173 3175 3176 3177 3179 3180 3181 3182 3183 3184 3184 3184 3185 3185 3185 3185 3184
3087 3091 3095 3098 3102 3107 3111 3114 3120 3124 3127 3131 3136 3138 3141 3144 3147 3149 3152 3154 3158 3161 3164 3166 3169 3171 3173 3175 3177 3178 3179 3180 3181 3182 3183 3184 3185 3185 3186 3186 3186 3186 3185
3080 3085 3089 3093 3096 3101 3106 3109 3115 3119 3122 3127 3131 3134 3138 3142 3145 3148 3151 3154 3157 3160 3162 3165 3168 3170 3172 3175 3177 3179 3180 3181 3182 3183 3184 3185 3186 3186 3187 3187 3187 3187 3186
3068 3080 3085 3088 3091 3096 3101 3105 3109 3115 3120 3125 3128 3132 3136 3139 3143 3146 3150 3152 3154 3158 3161 3164 3167 3170 3172 3174 3176 3178 3180 3182 3182 3183 3185 3186 3187 3187 3188 3188 3188 3188 3188
3059 3065 3078 3081 3085 3089 3095 3099 3103 3110 3116 3121 3126 3130 3133 3136 3141 3144 3147 3151 3153 3156 3160 3163 3166 3169 3171 3174 3176 3178 3180 3181 3182 3184 3185 3187 3188 3188 3188 3189 3189 3189 3189
3050 3056 3063 3074 3076 3082 3088 3093 3097 3104 3110 3116 3122 3127 3130 3133 3138 3142 3144 3148 3151 3154 3158 3161 3164 3167 3170 3173 3175 3177 3179 3181 3182 3184 3185 3186 3188 3188 3189 3190 3190 3190 3190
3039 3044 3054 3058 3064 3075 3079 3086 3091 3098 3105 3111 3117 3122 3127 3130 3134 3138 3142 3145 3148 3152 3155 3160 3163 3166 3169 3171 3174 3176 3179 3180 3182 3184 3185 3186 3187 3188 3189 3190 3191 3191 3191
3029 3036 3043 3049 3056 3065 3072 3078 3085 3092 3099 3106 3111 3116 3122 3125 3130 3134 3139 3143 3145 3149 3153 3157 3160 3164 3167 3170 3172 3175 3178 3180 3181 3183 3184 3186 3187 3188 3189 3190 3191 3191 3191
3020 3025 3028 3035 3044 3055 3064 3070 3078 3086 3092 3099 3106 3111 3116 3120 3125 3129 3134 3139 3142 3146 3150 3154 3157 3161 3164 3168 3170 3173 3176 3178 3180 3182 3184 3185 3187 3188 3189 3190 3191 3191 3192
3013 3018 3021 3032 3027 3046 3050 3057 3067 3075 3085 3093 3100 3106 3110 3115 3120 3124 3129 3134 3139 3143 3147 3151 3155 3158 3162 3165 3168 3171 3174 3176 3179 3181 3183 3185 3186 3188 3189 3190 3190 3191 3191
3005 3007 3015 3019 3021 3032 3043 3054 3061 3072 3081 3089 3095 3098 3103 3107 3114 3119 3123 3129 3135 3138 3142 3147 3151 3154 3158 3162 3166 3169 3172 3175 3177 3179 3182 3184 3186 3187 3189 3190 3190 3190 3191
2998 3000 3004 3015 3019 3020 3039 3047 3054 3062 3072 3077 3083 3090 3096 3103 3108 3114 3118 3123 3130 3134 3139 3143 3147 3152 3156 3160 3163 3167 3169 3172 3175 3177 3180 3182 3184 3186 3188 3189 3189 3190 3190
2990 2993 2997 3004 3001 3015 3025 3035 3043 3050 3059 3068 3080 3090 3093 3098 3103 3108 3114 3118 3123 3130 3134 3140 3144 3148 3152 3156 3159 3164 3166 3171 3173 3176 3178 3181 3183 3185 3186 3187 3188 3189 3189
2984 2987 2990 2995 3001 3009 3023 3027 3033 3042 3053 3065 3074 3080 3085 3091 3096 3102 3108 3112 3117 3124 3130 3135 3140 3144 3148 3152 3156 3160 3164 3167 3170 3174 3177 3179 3181 3183 3184 3185 3186 3187 3188
2978 2982 2987 2995 2998 3006 3003 3017 3025 3037 3049 3055 3064 3071 3077 3084 3089 3095 3101 3107 3112 3119 3124 3130 3135 3139 3144 3148 3151 3155 3159 3164 3168 3171 3174 3177 3179 3181 3182 3183 3184 3185 3186